User: anonymous   Login
Location: Unspecified
(0.0000°N, 0.0000°E)
Time: 23:49:21
(UTC+00:00)
Language:

STARLINK-35344 - Orbit

View from above orbital plane
View from above orbital plane
View from above satellite
View from above satellite

Ground track
Ground track

The orbit is defined by the following mean orbital elements,

1 65656U          26145.07736944 +.00000000 +00000-0 -10356-3 0 00008
2 65656  97.4493 188.9596 0001377 121.0725 239.0637 15.05640955    08
Epoch (UTC): 25 May 2026 01:51:24
Eccentricity: 0.0001377
inclination: 97.4493°
perigee height: 549 km
apogee height: 550 km
right ascension of ascending node: 188.9596°
argument of perigee: 121.0725°
revolutions per day: 15.05640955
mean anomaly at epoch: 239.0637°

The dashed part of the orbit path shows where the satellite is in the earth's shadow,  

DLR